KFOD

Fort Dodge Regional Airport

Airport
ICAO code
KFOD
IATA Code
FOD
Summary
ICAO Region
NAM
ICAO Territory
Location

Fort Dodge, Iowa

Serving
Fort Dodge
Elevation
1156 ft
Coordinates
42° 33' 9" N , 94° 11' 28" W
KCC
Airport CFIT
Altimeter Temperature Error Correction
Metar
KFOD 192056Z AUTO 01008KT 10SM SCT110 21/15 A3027 RMK AO2 SLP258 T02060150 58006

Fort Dodge Regional Airport is a public use airport located 3 nm north of the central business district of Fort Dodge, a city in Webster County, Iowa, USA.

Airport map

Aerial View

SKYbrary Partners:

Safety knowledge contributed by: